Location: Casteau
(50.5142°N, 4.0161°E)
Time: 03:13:27
(UTC+00:00)

CZ-2D R/B - Pass Details

Date: 18 September 2020
Orbit: 520 x 539 km, 97.4° (Epoch: 24 October)

Event Time Altitude Azimuth Distance (km) Brightness Sun altitude
Rises 18:15:50 0° 175° (S) 2,684 6.7 -4.9°
Reaches altitude 10° 18:17:58 10° 179° (S) 1,798 5.9 -5.2°
Maximum altitude 18:21:49 59° 260° (W) 632 4.0 -5.8°
Drops below altitude 10° 18:25:41 10° 340° (NNW) 1,811 6.4 -6.4°
Sets 18:27:50 0° 344° (NNW) 2,707 7.2 -6.8°
